Home > Weather > Jujuy > Past weeks

Flag for Argentina Past Weather in Jujuy, Jujuy, Argentina — Yesterday and Last 2 Weeks

Now
61 °F

Clear.


Feels Like: 61 °F
Forecast: 45 / 66 °F
Wind: No wind

Location: Jujuy Aerodrome

Current Time: Aug 27, 2016 at 11:37:44 PM

Latest Report: Aug 27, 2016 at 11:00 PM


Visibility: N/A

Pressure: 29.92 "Hg (21.25 "Hg at 2895m altitude)

Humidity: 55%

Dew Point: 45 °F

Location of JujuyLocation

Past Weather in Jujuy — Graph

°F

Jujuy Temperature Yesterday

Maximum temperature yesterday: 90 °F (at 3:00 PM)
Minimum temperature yesterday: 52 °F (at 6:00 AM)
Average temperature yesterday: 71 °F

High & Low Weather Summary for the Past Weeks

 TemperatureHumidityPressure
High91 °F (Aug 15, 4:00 PM)100% (Aug 15, 4:00 AM)30.54 "Hg (Aug 15, 4:00 AM)
Low39 °F (Aug 22, 3:00 AM)15% (Aug 17, 2:00 PM)29.65 "Hg (Aug 26, 4:00 PM)
Average64 °F46%29.99 "Hg
* Reported Aug 12 10:00 PM — Aug 27 10:00 PM, Jujuy, Weather by CustomWeather, © 2016

Note: Actual official high and low records may vary slightly from our data, if they occured in-between our weather recording intervals... More about our weather records

Advertising

Jujuy Weather History for the Previous 24 Hours

Scroll right to see more
 ConditionsComfort  
Time TempWeatherWind HumidityBarometerVisibility
10:00 PM
Sat, Aug 27
63 °FClear.5 mph49%29.92 "HgN/A
9:00 PM66 °FClear.8 mph37%29.92 "HgN/A
8:00 PM68 °FClear.12 mph38%29.89 "Hg6 mi
7:00 PM70 °FClear.15 mph38%29.86 "Hg6 mi
6:00 PM73 °FClear.15 mph31%29.83 "Hg5 mi
5:00 PM75 °FClear.14 mph31%29.80 "Hg5 mi
4:00 PM77 °FClear.12 mph34%29.80 "Hg5 mi
3:00 PM75 °FClear.10 mph39%29.80 "Hg5 mi
2:00 PM75 °FPartly sunny.15 mph39%29.83 "Hg4 mi
1:00 PM75 °FClear.16 mph39%29.86 "Hg4 mi
12:00 PM73 °FClear.15 mph44%29.86 "Hg4 mi
11:00 AM73 °FClear.14 mph44%29.89 "Hg4 mi
10:00 AM72 °FClear.6 mph44%29.86 "Hg4 mi
9:00 AM66 °FClear.5 mph52%29.86 "Hg4 mi
8:00 AM61 °FClear.7 mph59%29.83 "Hg5 mi
7:00 AM61 °FClear.6 mph59%29.83 "Hg5 mi
6:00 AM61 °FStrong thunderstorms. Overcast.8 mph55%29.80 "Hg5 mi
5:00 AM63 °FClear.8 mph52%29.80 "Hg5 mi
4:00 AM63 °FClear.9 mph52%29.80 "Hg5 mi
3:00 AM64 °FClear.9 mph49%29.80 "Hg5 mi
2:00 AM63 °FClear.9 mph49%29.80 "Hg5 mi
1:00 AM64 °FClear.8 mph49%29.80 "Hg5 mi
12:00 AM66 °FClear.9 mph49%29.80 "Hg5 mi
11:00 PM
Fri, Aug 26
66 °FClear.9 mph49%29.80 "Hg5 mi
Weather by CustomWeather, © 2016

See weather overviewHow to use our weather pages